| time (UTC) | temp C | wind direction | speed KPH | gust KPH | rain 1hr cm | rain 24hr cm | rain mn cm | humidity % | barometer mb |
| 20260510211127 | 16 | 0.0 | 0.0 | 0.00 | 0.00 | 0.00 | 10 | 1015.4 | |
| 20260510210127 | 16 | 0.0 | 0.0 | 0.00 | 0.00 | 0.00 | 10 | 1015.3 | |
| 20260510205127 | 16 | 0.0 | 0.0 | 0.00 | 0.00 | 0.00 | 10 | 1015.2 | |
| 20260510204127 | 16 | 0.0 | 0.0 | 0.00 | 0.00 | 0.00 | 10 | 1015.1 | |
| 20260510203127 | 16 | 0.0 | 0.0 | 0.00 | 0.00 | 0.00 | 10 | 1015.0 | |
| 20260510202127 | 16 | 0.0 | 0.0 | 0.00 | 0.00 | 0.00 | 10 | 1014.9 | |
| 20260510201127 | 16 | 0.0 | 0.0 | 0.00 | 0.00 | 0.00 | 10 | 1014.9 | |
| 20260510200127 | 16 | 0.0 | 0.0 | 0.00 | 0.00 | 0.00 | 10 | 1014.8 | |
| 20260510195127 | 16 | 0.0 | 0.0 | 0.00 | 0.00 | 0.00 | 10 | 1014.8 | |
| 20260510194127 | 16 | 0.0 | 0.0 | 0.00 | 0.00 | 0.00 | 10 | 1014.6 | |
| 20260510193127 | 16 | 0.0 | 0.0 | 0.00 | 0.00 | 0.00 | 10 | 1014.7 | |
| 20260510192127 | 17 | 0.0 | 0.0 | 0.00 | 0.00 | 0.00 | 10 | 1014.5 | |
| 20260510191127 | 17 | 0.0 | 0.0 | 0.00 | 0.00 | 0.00 | 10 | 1014.6 | |
| 20260510190127 | 17 | 0.0 | 0.0 | 0.00 | 0.00 | 0.00 | 10 | 1014.5 | |
| 20260510185127 | 17 | 0.0 | 0.0 | 0.00 | 0.00 | 0.00 | 10 | 1014.5 | |
| 20260510184127 | 17 | 0.0 | 0.0 | 0.00 | 0.00 | 0.00 | 10 | 1014.5 | |
| 20260510183127 | 17 | 0.0 | 0.0 | 0.00 | 0.00 | 0.00 | 10 | 1014.1 | |
| 20260510182127 | 17 | 0.0 | 0.0 | 0.00 | 0.00 | 0.00 | 10 | 1014.1 | |
| 20260510181127 | 18 | 0.0 | 0.0 | 0.00 | 0.00 | 0.00 | 10 | 1014.1 | |
| 20260510180127 | 18 | 0.0 | 0.0 | 0.00 | 0.00 | 0.00 | 10 | 1014.0 | |
| 20260510175127 | 18 | 0.0 | 0.0 | 0.00 | 0.00 | 0.00 | 10 | 1013.9 | |
| 20260510174127 | 18 | 0.0 | 0.0 | 0.00 | 0.00 | 0.00 | 10 | 1013.7 | |
| 20260510173127 | 17 | 0.0 | 0.0 | 0.00 | 0.00 | 0.00 | 10 | 1013.8 | |
| 20260510172127 | 17 | 0.0 | 0.0 | 0.00 | 0.00 | 0.00 | 10 | 1013.8 | |
| 20260510171127 | 18 | 0.0 | 0.0 | 0.00 | 0.00 | 0.00 | 10 | 1013.7 | |
| 20260510170127 | 18 | 0.0 | 0.0 | 0.00 | 0.00 | 0.00 | 10 | 1013.9 | |
| 20260510165127 | 19 | 0.0 | 0.0 | 0.00 | 0.00 | 0.00 | 10 | 1013.8 | |
| 20260510164127 | 17 | 0.0 | 0.0 | 0.00 | 0.00 | 0.00 | 10 | 1013.9 | |
| 20260510163127 | 16 | 0.0 | 0.0 | 0.00 | 0.00 | 0.00 | 10 | 1014.2 | |
| 20260510162127 | 15 | 0.0 | 0.0 | 0.00 | 0.00 | 0.00 | 10 | 1014.5 | |
| 20260510161127 | 16 | 0.0 | 0.0 | 0.00 | 0.00 | 0.00 | 10 | 1014.2 | |
| 20260510160127 | 17 | 0.0 | 0.0 | 0.00 | 0.00 | 0.00 | 10 | 1013.5 | |
| 20260510155127 | 21 | 0.0 | 0.0 | 0.00 | 0.00 | 0.00 | 98 | 1011.7 | |
| 20260510154127 | 22 | 0.0 | 0.0 | 0.00 | 0.00 | 0.00 | 86 | 1011.5 | |
| 20260510153127 | 22 | 0.0 | 0.0 | 0.00 | 0.00 | 0.00 | 10 | 1011.5 | |
| 20260510152127 | 22 | 0.0 | 0.0 | 0.00 | 0.00 | 0.00 | 10 | 1011.3 | |
| 20260510151127 | 22 | 0.0 | 0.0 | 0.00 | 0.00 | 0.00 | 10 | 1011.6 | |
| 20260510150127 | 20 | 0.0 | 0.0 | 0.00 | 0.00 | 0.00 | 10 | 1012.1 | |
| 20260510145127 | 18 | 0.0 | 0.0 | 0.00 | 0.00 | 0.00 | 10 | 1012.4 | |
| 20260510144127 | 19 | 0.0 | 0.0 | 0.00 | 0.00 | 0.00 | 10 | 1012.5 | |
| 20260510143127 | 18 | 0.0 | 0.0 | 0.00 | 0.00 | 0.00 | 10 | 1012.7 | |
| 20260510142127 | 16 | 0.0 | 0.0 | 0.00 | 0.00 | 0.00 | 10 | 1013.6 | |
| 20260510141127 | 16 | 0.0 | 0.0 | 0.00 | 0.00 | 0.00 | 10 | 1013.7 | |
| 20260510140127 | 16 | 0.0 | 0.0 | 0.00 | 0.00 | 0.00 | 10 | 1013.8 | |
| 20260510135127 | 17 | 0.0 | 0.0 | 0.00 | 0.00 | 0.00 | 10 | 1013.4 | |
| 20260510134127 | 17 | 0.0 | 0.0 | 0.00 | 0.00 | 0.00 | 10 | 1013.3 | |
| 20260510133127 | 17 | 0.0 | 0.0 | 0.00 | 0.00 | 0.00 | 10 | 1013.4 | |
| 20260510132127 | 18 | 0.0 | 0.0 | 0.00 | 0.00 | 0.00 | 10 | 1013.2 | |
| 20260510131127 | 17 | 0.0 | 0.0 | 0.00 | 0.00 | 0.00 | 10 | 1013.2 | |
| 20260510130127 | 18 | 0.0 | 0.0 | 0.00 | 0.00 | 0.00 | 10 | 1013.2 | |
| 20260510125127 | 17 | 0.0 | 0.0 | 0.00 | 0.00 | 0.00 | 10 | 1013.5 | |
| 20260510124127 | 18 | 0.0 | 0.0 | 0.00 | 0.00 | 0.00 | 10 | 1013.6 | |
| 20260510123127 | 17 | 0.0 | 0.0 | 0.00 | 0.00 | 0.00 | 10 | 1013.8 | |
| 20260510122127 | 18 | 0.0 | 0.0 | 0.00 | 0.00 | 0.00 | 10 | 1013.8 | |
| 20260510121127 | 17 | 0.0 | 0.0 | 0.00 | 0.00 | 0.00 | 10 | 1013.9 | |
| 20260510120127 | 18 | 0.0 | 0.0 | 0.00 | 0.00 | 0.00 | 10 | 1013.7 | |
| 20260510115127 | 19 | 0.0 | 0.0 | 0.00 | 0.00 | 0.00 | 10 | 1013.3 | |
| 20260510114127 | 20 | 0.0 | 0.0 | 0.00 | 0.00 | 0.00 | 69 | 1012.8 | |
| 20260510113127 | 20 | 0.0 | 0.0 | 0.00 | 0.00 | 0.00 | 69 | 1012.6 | |
| 20260510112127 | 21 | 0.0 | 0.0 | 0.00 | 0.00 | 0.00 | 62 | 1012.4 | |
| 20260510110337 | 20 | 0.0 | 0.0 | 0.00 | 0.00 | 0.00 | 63 | 1012.8 | |
| 20260510105337 | 21 | 0.0 | 0.0 | 0.00 | 0.00 | 0.00 | 61 | 1012.8 |